When you browse on this site, cookies collect data to enhance your experience and personalize the content and advertising you see.
Visit our Privacy Policy to learn more. By continuing to use the site, you agree to this use of cookies and data.
  • In France
  • List of Countries
  • For 7 days
  • Water Temperature
  • Weather Map
  • Weather Widgets
  • user-avatar
    Login

    Hourly Weather Gaborone

    Today, 6 December, Friday

    Time Temperature Precipitation Wind Pressure Humidity
    00:00 +17°C° 0 mm 3 mps 678 mmHg 81%
    01:00 +17°C° 0 mm 3 mps 678 mmHg 82%
    02:00 +17°C° 0 mm 2 mps 678 mmHg 84%
    03:00 +17°C° 0 mm 3 mps 678 mmHg 82%
    04:00 +17°C° 0 mm 3 mps 677 mmHg 80%
    05:00 +17°C° 0 mm 4 mps 677 mmHg 78%
    06:00 +18°C° 0 mm 4 mps 678 mmHg 75%
    07:00 +19°C° 0 mm 4 mps 678 mmHg 73%
    08:00 +19°C° 0 mm 4 mps 678 mmHg 70%
    09:00 +19°C° 0.1 mm 4 mps 678 mmHg 72%
    10:00 +19°C° 0.1 mm 3 mps 678 mmHg 74%
    11:00 +19°C° 0.1 mm 3 mps 677 mmHg 75%
    12:00 +20°C° 0.1 mm 2 mps 677 mmHg 73%
    13:00 +20°C° 0.1 mm 2 mps 676 mmHg 71%
    14:00 +22°C° 0.1 mm 1 mps 676 mmHg 68%
    15:00 +21°C° 0 mm 2 mps 676 mmHg 71%
    16:00 +20°C° 0 mm 3 mps 675 mmHg 74%
    17:00 +20°C° 0 mm 4 mps 675 mmHg 76%
    18:00 +20°C° 0 mm 4 mps 675 mmHg 78%
    19:00 +19°C° 0 mm 4 mps 675 mmHg 81%
    20:00 +19°C° 0 mm 4 mps 675 mmHg 83%
    21:00 +19°C° 0.2 mm 4 mps 675 mmHg 84%
    22:00 +19°C° 0.2 mm 3 mps 675 mmHg 85%
    23:00 +19°C° 0.2 mm 3 mps 675 mmHg 86%

    Tomorrow, 7 December, Saturday

    Time Temperature Precipitation Wind Pressure Humidity
    00:00 +19°C° 2 mm 2 mps 675 mmHg 89%
    01:00 +19°C° 2 mm 1 mps 674 mmHg 91%
    02:00 +19°C° 2 mm 1 mps 674 mmHg 94%
    03:00 +19°C° 3.1 mm 1 mps 674 mmHg 94%
    04:00 +18°C° 3.1 mm 2 mps 674 mmHg 95%
    05:00 +18°C° 3.1 mm 2 mps 674 mmHg 95%
    06:00 +18°C° 3.2 mm 2 mps 674 mmHg 95%
    07:00 +19°C° 3.2 mm 2 mps 674 mmHg 95%
    08:00 +19°C° 3.2 mm 3 mps 675 mmHg 95%
    09:00 +19°C° 1.4 mm 3 mps 675 mmHg 93%
    10:00 +20°C° 1.4 mm 3 mps 675 mmHg 90%
    11:00 +20°C° 1.4 mm 3 mps 675 mmHg 88%
    12:00 +21°C° 0.1 mm 3 mps 675 mmHg 85%
    13:00 +21°C° 0.1 mm 4 mps 675 mmHg 82%
    14:00 +22°C° 0.1 mm 4 mps 674 mmHg 79%
    15:00 +22°C° 0 mm 3 mps 674 mmHg 78%
    16:00 +22°C° 0 mm 3 mps 673 mmHg 78%
    17:00 +24°C° 0 mm 2 mps 673 mmHg 77%
    18:00 +23°C° 0 mm 2 mps 673 mmHg 81%
    19:00 +21°C° 0 mm 2 mps 673 mmHg 85%
    20:00 +20°C° 0 mm 2 mps 673 mmHg 89%
    21:00 +20°C° 0 mm 2 mps 673 mmHg 90%
    22:00 +20°C° 0 mm 2 mps 673 mmHg 91%
    23:00 +20°C° 0 mm 2 mps 673 mmHg 92%

    Day after tomorrow, 8 December, Sunday

    Time Temperature Precipitation Wind Pressure Humidity
    00:00 +19°C° 0 mm 2 mps 673 mmHg 93%
    01:00 +19°C° 0 mm 2 mps 672 mmHg 94%
    02:00 +20°C° 0 mm 1 mps 672 mmHg 95%
    03:00 +19°C° 0 mm 2 mps 672 mmHg 94%
    04:00 +20°C° 0 mm 2 mps 672 mmHg 93%
    05:00 +20°C° 0 mm 3 mps 673 mmHg 91%
    06:00 +21°C° 0 mm 3 mps 673 mmHg 89%
    07:00 +21°C° 0 mm 3 mps 673 mmHg 86%
    08:00 +22°C° 0 mm 3 mps 674 mmHg 84%
    09:00 +22°C° 0.3 mm 4 mps 673 mmHg 83%
    10:00 +22°C° 0.3 mm 4 mps 673 mmHg 82%
    11:00 +23°C° 0.3 mm 4 mps 673 mmHg 80%
    12:00 +25°C° 0.3 mm 4 mps 673 mmHg 74%
    13:00 +26°C° 0.3 mm 4 mps 672 mmHg 68%
    14:00 +28°C° 0.3 mm 4 mps 672 mmHg 61%
    15:00 +28°C° 0.8 mm 4 mps 672 mmHg 62%
    16:00 +28°C° 0.8 mm 4 mps 671 mmHg 63%
    17:00 +27°C° 0.8 mm 4 mps 671 mmHg 64%
    18:00 +26°C° 0.5 mm 3 mps 671 mmHg 69%
    19:00 +25°C° 0.5 mm 2 mps 671 mmHg 75%
    20:00 +24°C° 0.5 mm 2 mps 671 mmHg 80%
    21:00 +24°C° 0.2 mm 2 mps 671 mmHg 81%
    22:00 +23°C° 0.2 mm 2 mps 671 mmHg 82%
    23:00 +23°C° 0.2 mm 2 mps 672 mmHg 83%

    9 December, Monday

    Time Temperature Precipitation Wind Pressure Humidity
    00:00 +23°C° 0.2 mm 2 mps 671 mmHg 86%
    01:00 +21°C° 0.2 mm 2 mps 671 mmHg 89%
    02:00 +21°C° 0.2 mm 2 mps 670 mmHg 92%
    03:00 +20°C° 0.6 mm 2 mps 670 mmHg 92%
    04:00 +20°C° 0.6 mm 2 mps 670 mmHg 92%
    05:00 +20°C° 0.6 mm 2 mps 670 mmHg 92%
    06:00 +23°C° 0.7 mm 2 mps 671 mmHg 84%
    07:00 +25°C° 0.7 mm 3 mps 671 mmHg 76%
    08:00 +26°C° 0.7 mm 3 mps 672 mmHg 68%
    09:00 +27°C° 0.9 mm 3 mps 672 mmHg 62%
    10:00 +29°C° 0.9 mm 3 mps 672 mmHg 56%
    11:00 +30°C° 0.9 mm 3 mps 672 mmHg 50%
    12:00 +30°C° 0.1 mm 3 mps 672 mmHg 47%
    13:00 +32°C° 0.1 mm 4 mps 672 mmHg 43%
    14:00 +32°C° 0.1 mm 4 mps 671 mmHg 40%
    15:00 +32°C° 0 mm 4 mps 671 mmHg 38%
    16:00 +32°C° 0 mm 4 mps 671 mmHg 37%
    17:00 +32°C° 0 mm 4 mps 671 mmHg 36%
    18:00 +29°C° 0 mm 3 mps 671 mmHg 44%
    19:00 +27°C° 0 mm 2 mps 671 mmHg 52%
    20:00 +26°C° 0 mm 2 mps 671 mmHg 59%
    21:00 +25°C° 0.1 mm 1 mps 672 mmHg 64%
    22:00 +24°C° 0.1 mm 1 mps 672 mmHg 69%
    23:00 +23°C° 0.1 mm 1 mps 672 mmHg 74%

    10 December, Tuesday

    Time Temperature Precipitation Wind Pressure Humidity
    00:00 +23°C° 0 mm 1 mps 672 mmHg 72%
    01:00 +21°C° 0 mm 2 mps 672 mmHg 70%
    02:00 +21°C° 0 mm 2 mps 671 mmHg 68%
    03:00 +20°C° 0 mm 2 mps 671 mmHg 71%
    04:00 +20°C° 0 mm 2 mps 672 mmHg 74%
    05:00 +19°C° 0 mm 2 mps 672 mmHg 76%
    06:00 +21°C° 0 mm 2 mps 672 mmHg 73%
    07:00 +23°C° 0 mm 2 mps 673 mmHg 71%
    08:00 +24°C° 0 mm 2 mps 673 mmHg 68%
    09:00 +26°C° 0.1 mm 2 mps 673 mmHg 56%
    10:00 +29°C° 0.1 mm 2 mps 674 mmHg 44%
    11:00 +31°C° 0.1 mm 1 mps 674 mmHg 32%
    12:00 +31°C° 0 mm 2 mps 674 mmHg 29%
    13:00 +33°C° 0 mm 4 mps 673 mmHg 26%
    14:00 +33°C° 0 mm 5 mps 673 mmHg 23%
    15:00 +33°C° 0 mm 5 mps 673 mmHg 24%
    16:00 +33°C° 0 mm 5 mps 672 mmHg 24%
    17:00 +33°C° 0 mm 5 mps 672 mmHg 24%
    18:00 +30°C° 0 mm 4 mps 672 mmHg 27%
    19:00 +28°C° 0 mm 3 mps 672 mmHg 30%
    20:00 +27°C° 0 mm 2 mps 672 mmHg 33%
    21:00 +26°C° 0 mm 2 mps 673 mmHg 35%
    22:00 +25°C° 0 mm 2 mps 673 mmHg 36%
    23:00 +25°C° 0 mm 2 mps 673 mmHg 37%

    11 December, Wednesday

    Time Temperature Precipitation Wind Pressure Humidity
    00:00 +24°C° 0 mm 2 mps 673 mmHg 39%
    01:00 +24°C° 0 mm 1 mps 673 mmHg 40%
    02:00 +23°C° 0 mm 1 mps 672 mmHg 42%
    03:00 +23°C° 0 mm 1 mps 672 mmHg 43%
    04:00 +22°C° 0 mm 1 mps 672 mmHg 45%
    05:00 +22°C° 0 mm 1 mps 672 mmHg 46%
    06:00 +23°C° 0 mm 1 mps 673 mmHg 42%
    07:00 +25°C° 0 mm 2 mps 674 mmHg 39%
    08:00 +27°C° 0 mm 2 mps 674 mmHg 35%
    09:00 +29°C° 0 mm 2 mps 675 mmHg 30%
    10:00 +31°C° 0 mm 2 mps 675 mmHg 25%
    11:00 +34°C° 0 mm 2 mps 675 mmHg 20%
    12:00 +34°C° 0 mm 2 mps 675 mmHg 18%
    13:00 +35°C° 0 mm 2 mps 674 mmHg 17%
    14:00 +36°C° 0 mm 3 mps 674 mmHg 15%
    15:00 +36°C° 0 mm 3 mps 674 mmHg 15%
    16:00 +35°C° 0 mm 4 mps 673 mmHg 16%
    17:00 +35°C° 0 mm 4 mps 673 mmHg 17%
    18:00 +33°C° 0 mm 3 mps 673 mmHg 20%
    19:00 +30°C° 0 mm 2 mps 673 mmHg 23%
    20:00 +29°C° 0 mm 2 mps 673 mmHg 27%
    21:00 +28°C° 0 mm 1 mps 673 mmHg 27%
    22:00 +28°C° 0 mm 1 mps 673 mmHg 28%
    23:00 +27°C° 0 mm 1 mps 673 mmHg 28%
    Show more